STARLINK-3109, 49143

Orbit data source: Space-Track

STARLINK-3109, 49143 is a payload satellite owned by SpaceX/Seattle (US) in LEO that was launched on Tue, 14 Sep 2021 UTC via an FALCON 9 launch vehicle from the Air Force Western Test Range (AFWTR). Payload-class satellites include a variety of spacecraft equipped with specific instruments for various scientific and technological missions. These include communications satellites like Starlink; space stations such as the ISS; scientific satellites like the Hubble; Earth observation satellites from companies like Planet Labs, Umbra, and HawkEye 360; GPS; miniature CubeSats for education and research; and military/defense satellites.

Loading next visibility...
Identifier
49143, 2021-082P
Orbit
LEO
Country
Flag of USUS
Related business
Manufacturer
SpaceX/Seattle
Mission
Operational Commercial Communications
Bus & Motor
STARLINK, Unknown motor
Mass
297 kg wet, ~275 kg dry
Launch date (UTC)
2021-09-14 (4 years ago)
Launch vehicle
FALCON 9
Launch site
Air Force Western Test Range (AFWTR)
Object type
Payload
Rocket body
Debris
Shape & HBR
Box + 1 Pan, 10.1 m
Radar Cross Section
13.562 m², Large (>1 m²)

Expand to show TLE details & history
Last TLE update: 6 hours ago

TLE from 6 hours ago
0 STARLINK-3109
1 49143U 21082P   25311.17272630  .00001174  00000-0  10829-3 0  9990
2 49143  70.0006 223.7617 0002470 268.2197  91.8679 14.97527055229224
Epoch: 2025-11-07T04:08Z
TLE epoch observation values (Epoch: 2025-11-07T04:08:43.552Z)
Latitude
0.00001°
Longitude
114.95974°
Altitude
577.019 km
Speed
7.572 km/s
True Right ascension
14h 55m 02s
True Declination
0° 00' 00"
Sunlit
Object was in daylight at epoch
Visualization orbit readout
Latitude
Unknown
Longitude
Unknown
Altitude
Unknown
Speed
Unknown
Apparent Right ascension
Unknown
Apparent Declination
Unknown
Sunlit
N/A
Visualization observer readout
Local Sidereal Time
06:43:53
Azimuth
Unknown
Elevation
Unknown
Doppler factor
Unknown
Orbital elements
Apogee altitude
574.206 km
Perigee altitude
570.772 km
Semi-major axis
6,950.626 km
Eccentricity
0.00025
Inclination
70.0006°
RAAN
223.7617°
Arg. of periapsis
268.2197°
True anomaly
91.89619°
Mean anomaly
91.8679°
Eccentric anomaly
91.88204°
Mean motion
3.74548 °/min
Orbital period
96.12 mins
BSTAR
0.00010829
Loading maneuver chart data...
Computing Atmospheric mass density...
Loading historical data...
Loading historical data...
Loading historical data...
Loading historical data...
Loading historical data...
Loading historical data...
Loading historical data...

Documentation

Showing up to 5 results
|